Location: *
(43.7000°S, 168.7000°W)
Time: 13:31:56
(UTC+00:00)

Okean O Rocket - Pass Details

Date: 07 July 2020
Orbit: 622 x 645 km, 98.2° (Epoch: 03 August)

Event Time Altitude Azimuth Distance (km) Brightness Sun altitude
Rises 15:51:14 0° 32° (NNE) 2,936 5.5 -31.1°
Reaches altitude 10° 15:53:29 10° 38° (NE) 2,039 4.6 -30.7°
Enters shadow 15:57:32 44° 103° (ESE) 907 2.7 -29.9°
